Location: *
(33.8649°S, 62.1526°E)
Time: 08:17:54
(UTC+00:00)

Cosmos 1954 Rocket - Visible Passes

Search period start: 11 May 2021 00:00
Search period end: 21 May 2021 00:00
Orbit: 752 x 781 km, 74.0° (Epoch: 10 May)

Date Brightness Start Highest point End Pass type
(mag) Time Alt. Az. Time Alt. Az. Time Alt. Az.
11 May 4.2 01:00:54 10° N 01:06:13 77° ENE 01:11:35 10° SSE visible
12 May 5.3 00:23:52 10° N 00:28:51 41° ENE 00:33:52 10° SSE visible
12 May 5.3 02:07:05 10° WNW 02:11:01 20° WSW 02:14:58 10° SSW visible
12 May 6.2 23:47:28 10° NNE 23:51:35 23° E 23:55:42 10° SE visible
13 May 4.6 01:28:28 10° NW 01:33:20 35° WSW 01:38:14 10° S visible
13 May 7.0 23:12:23 10° ENE 23:14:24 12° E 23:16:26 10° ESE visible
14 May 4.0 00:50:29 10° NNW 00:55:46 64° WSW 01:01:06 10° S visible
15 May 4.2 00:17:40 64° NNE 00:18:18 72° ENE 00:23:39 10° SSE visible
15 May 5.7 01:58:39 10° W 02:00:52 12° WSW 02:03:05 10° SW visible
15 May 5.8 23:43:14 26° SE 23:43:14 26° SE 23:45:54 10° SE visible
16 May 5.2 01:23:35 21° SW 01:23:35 21° SW 01:27:10 10° SSW visible
17 May 5.5 00:48:18 22° SSW 00:48:18 22° SSW 00:50:22 10° S visible
18 May 6.3 00:12:37 13° S 00:12:37 13° S 00:13:12 10° SSE visible
